Tracking 32954 objects as of 19-Jan-2026
HD Live streaming from Space Station
objects crossing your sky now

STARLINK-32236

Track STARLINK-32236 now!
10-day predictions
STARLINK-32236 is classified as:


NORAD ID: 60418
Int'l Code: 2024-141W
Perigee: 481.4 km
Apogee: 483.3 km
Inclination: 53.2 °
Period: 94.1 minutes
Semi major axis: 6853 km
RCS: Unknown
Launch date: August 10, 2024
Source: United States (US)
Launch site: AIR FORCE EASTERN TEST RANGE (AFETR)
Your satellite tracking list
Your tracking list is empty




NASA's NSSDC Master Catalog

Two Line Element Set (TLE):
1 60418U 24141W   26019.52335970  .00001844  00000-0  74376-4 0  9991
2 60418  53.1616 110.9169 0001407  89.1334 270.9828 15.30194014 82059
Source of the keplerian elements: AFSPC